Tracking 30692 objects as of 17-Jun-2025
HD Live streaming from Space Station
objects crossing your sky now

STARLINK-31177

Track STARLINK-31177 now!
10-day predictions
STARLINK-31177 is classified as:


NORAD ID: 58873
Int'l Code: 2024-019W
Perigee: 493.9 km
Apogee: 496.4 km
Inclination: 43.0 °
Period: 94.4 minutes
Semi major axis: 6866 km
RCS: Unknown
Launch date: January 29, 2024
Source: United States (US)
Launch site: AIR FORCE EASTERN TEST RANGE (AFETR)
Your satellite tracking list
Your tracking list is empty




NASA's NSSDC Master Catalog

Two Line Element Set (TLE):
1 58873U 24019W   25167.85439485  .00004350  00000-0  17596-3 0  9997
2 58873  43.0022 309.5980 0001832 287.6803  72.3848 15.25927994 78433
Source of the keplerian elements: AFSPC